{"data":{"norad_id":51747,"intl_designator":"2022-016AK","name":"STARLINK-3446","alt_names":[],"object_type":"PAYLOAD","status":"ACTIVE","operator":null,"country":"US","launch_date":"2022-02-21","launch_site_code":"AFETR","launch_vehicle":null,"mission":null,"orbit_class":"UNKNOWN","rcs_meters":null,"size_class":null,"mass_kg":null,"dimensions":null,"purposes":["comms"],"wikipedia_slug":null,"has_3d_model":false,"image_url":null,"decayed_at":null,"tle_current":{"epoch":"2026-05-24T22:27:40.728384Z","epoch_age_seconds":89439,"freshness":"FRESH","line1":"1 51747U 22016AK  26144.93588806  .00000298  00000+0  36831-4 0  9992","line2":"2 51747  53.2144 336.8863 0001227  73.4589 286.6538 15.08839988235074","mean_motion":15.08839988,"eccentricity":0.0001227,"inclination_deg":53.2144,"raan_deg":336.8863,"arg_perigee_deg":73.4589,"mean_anomaly_deg":286.6538,"bstar":3.6831e-5,"rev_number":23507,"period_min":95.437555436793,"perigee_km":538.89460171508,"apogee_km":540.59224957153,"semimajor_km":6917.8804256433,"source":"CELESTRAK","updated_at":"2026-05-25T13:38:16.946409Z"}}}